GFSMW_sfc_30mbdewp_276.txt.gz
Dewpoint
36 36 38 39 40 41 42 43 45 47 53 66 65 65 64 64 64 64 64 62 62 61 62 61 61 60 59 59 58 57 55 54 54 57 60 61 61 60 61 62 63 63 63
36 36 37 39 40 40 41 42 44 47 48 51 61 66 65 65 65 64 63 63 61 61 61 60 60 60 59 58 57 56 54 54 57 56 58 56 59 61 61 60 61 63 63
36 36 37 38 39 39 40 42 44 48 49 52 54 66 65 64 63 63 63 63 61 60 61 60 60 60 59 58 57 56 54 52 54 58 56 56 54 59 60 61 61 62 62
37 37 37 38 38 39 40 41 44 45 46 48 51 57 63 62 62 62 63 63 63 60 60 60 60 60 59 58 57 57 55 52 51 57 59 59 58 57 57 60 60 61 61
37 37 38 38 39 39 40 41 43 43 45 47 48 51 54 62 62 62 62 62 62 62 59 60 60 59 59 59 58 56 55 54 51 54 56 59 59 58 57 56 58 60 61
37 38 38 38 38 39 39 41 41 42 44 45 47 48 50 53 57 61 60 61 62 62 62 59 60 60 59 58 58 57 56 55 54 53 54 54 56 57 57 55 56 58 60
38 37 37 37 38 38 38 40 40 40 42 44 45 47 48 51 53 55 62 61 60 61 62 61 59 60 59 59 58 58 56 56 55 54 54 56 56 57 57 56 54 56 57
38 38 37 36 37 37 38 38 40 38 40 41 44 46 47 49 51 53 56 62 61 61 62 62 60 60 61 60 59 58 57 56 55 54 54 54 56 58 58 56 55 53 52
36 38 38 37 37 37 38 38 39 38 38 40 42 43 46 47 49 52 56 58 61 63 62 63 62 60 60 60 60 59 58 57 56 56 55 54 54 57 60 59 56 56 54
35 35 38 37 37 38 38 39 39 39 39 39 41 41 43 45 47 50 51 53 56 61 64 63 63 62 61 61 61 60 59 57 57 56 55 54 54 54 58 61 58 58 56
36 35 35 36 37 38 38 39 38 36 40 39 40 41 41 43 45 46 47 50 52 55 59 64 64 63 62 62 61 61 60 59 57 57 56 55 55 54 56 58 59 58 58
36 36 36 35 36 36 39 39 35 35 39 37 39 40 40 41 42 44 45 47 49 52 56 59 60 64 63 62 62 61 61 60 58 58 57 56 55 55 55 56 56 58 59
36 37 36 34 34 35 38 39 34 35 36 36 36 38 39 39 40 42 44 45 47 49 51 54 57 58 62 64 63 62 62 61 60 59 58 57 57 55 55 55 55 56 57
35 36 35 35 34 34 38 40 34 34 36 35 34 36 38 38 39 40 42 42 45 45 48 51 53 57 58 61 64 64 63 62 61 61 60 59 58 57 56 56 55 56 57
34 34 35 36 34 33 38 39 35 34 36 34 33 34 37 38 38 38 39 40 42 44 45 47 51 53 58 58 58 59 60 61 62 61 61 60 60 58 58 57 56 55 55
33 34 35 36 33 34 35 34 34 34 35 33 32 33 35 37 37 38 37 38 40 42 44 44 47 50 53 42 47 52 57 57 58 58 57 60 60 58 56 55 56 57 56
33 34 35 35 31 33 31 30 32 33 33 33 32 33 34 35 36 37 36 37 38 40 41 43 44 46 49 41 40 40 49 56 57 57 57 58 63 60 59 55 53 54 55
33 34 35 33 30 31 29 31 31 31 31 31 32 33 34 34 36 36 35 36 37 37 39 41 42 43 45 42 40 38 42 49 54 59 60 58 58 60 61 60 57 56 56
35 35 34 30 30 30 30 31 30 31 30 30 32 33 33 34 35 35 35 35 36 36 37 39 40 41 41 41 40 37 40 47 51 54 57 59 59 60 58 61 60 59 58
33 29 27 29 29 29 30 30 30 30 29 30 33 33 33 34 34 35 35 34 35 36 37 36 37 39 39 39 39 38 37 40 41 44 51 55 56 58 58 57 58 60 59
26 27 27 28 28 29 30 29 30 29 30 31 33 33 32 33 34 34 34 33 33 33 34 35 36 36 37 37 37 38 36 36 35 40 44 49 48 49 54 55 58 59 62
27 27 27 27 29 30 30 30 30 30 30 32 33 33 32 32 33 32 32 32 33 32 31 31 33 34 35 36 36 36 35 35 35 36 38 38 39 40 45 51 54 57 56
27 28 29 29 30 30 30 29 30 30 30 31 32 32 31 31 30 31 30 31 31 31 30 30 29 31 33 34 35 34 34 35 34 36 35 36 38 39 42 48 52 51 53
28 29 29 29 29 30 29 29 29 30 30 30 31 31 30 29 29 29 29 31 30 30 30 29 29 29 30 31 32 32 33 34 34 35 36 37 37 38 39 41 43 45 52
29 28 28 28 25 27 27 27 27 29 29 29 30 29 27 27 28 28 29 29 30 31 31 30 30 30 28 30 32 32 32 32 34 34 35 35 35 35 36 36 38 39 41
27 25 27 25 24 26 26 26 26 27 28 28 28 28 27 27 27 26 27 29 29 30 30 31 31 31 31 31 30 31 32 32 33 33 33 33 33 33 34 34 35 36 37

GFSMW_sfc_30mbdewp_279.txt.gz
Dewpoint
34 36 38 38 39 41 42 44 45 47 50 53 54 66 65 66 66 65 65 65 64 63 62 60 60 61 59 59 61 59 58 55 54 51 56 60 62 62 62 61 60 60 61
35 35 37 38 38 40 41 42 43 45 47 48 51 56 63 66 66 65 65 65 64 63 62 61 59 59 58 59 60 59 56 55 55 48 51 51 56 61 62 61 61 61 60
36 35 36 37 38 38 40 41 42 43 45 47 49 53 61 66 65 65 65 64 64 64 63 62 61 60 59 57 59 59 57 52 55 54 47 50 47 54 60 61 61 61 61
37 36 35 36 37 37 39 40 42 41 43 46 47 49 53 54 63 64 65 65 64 63 63 62 62 61 59 58 58 58 57 55 51 55 54 59 59 52 55 60 61 61 61
36 37 35 35 36 37 38 39 39 39 42 44 46 48 49 51 54 59 64 65 65 64 63 62 62 62 61 60 59 59 58 56 52 51 50 54 57 61 58 55 59 61 61
35 38 37 34 34 35 36 37 38 38 39 42 44 46 47 49 52 53 56 62 64 64 64 62 62 62 61 61 60 60 59 58 57 54 51 50 52 54 58 57 58 58 59
34 35 36 34 35 36 37 35 35 36 38 40 42 43 45 47 48 50 53 56 59 63 64 64 62 62 62 61 61 60 59 59 58 57 54 53 52 52 55 55 55 56 59
30 34 35 36 35 36 37 37 35 35 37 39 40 42 43 44 47 49 51 53 55 58 63 64 63 62 62 62 61 60 60 59 59 58 57 54 54 55 55 55 54 54 55
23 35 34 35 34 35 37 39 35 34 35 37 39 41 41 42 44 46 49 50 52 53 56 60 63 63 62 62 62 62 61 60 60 59 59 57 56 56 57 57 56 54 52
23 35 36 35 33 35 37 40 35 32 35 36 36 40 41 41 42 44 46 47 49 51 53 56 60 63 63 62 62 62 62 61 60 59 58 58 57 57 57 58 58 57 55
34 36 37 36 34 34 36 39 35 32 34 34 35 37 40 41 41 42 44 45 46 48 50 52 54 59 62 63 62 62 62 61 60 60 59 58 58 57 57 57 58 58 58
35 37 37 35 35 33 34 37 36 33 34 33 33 35 38 40 40 40 40 43 44 46 47 49 51 53 56 59 63 62 62 61 61 61 60 59 58 58 58 57 57 58 59
34 35 35 35 35 34 35 35 34 34 34 33 32 33 36 38 39 39 39 40 42 44 46 47 48 50 53 54 58 60 63 62 62 61 61 60 59 59 58 58 57 57 57
33 34 35 36 36 34 34 32 32 33 33 32 31 32 34 36 37 39 39 39 40 42 44 45 46 47 50 51 49 51 58 63 62 62 62 61 61 60 59 58 57 57 57
31 33 34 35 36 33 33 31 31 32 32 29 30 32 34 35 36 37 37 38 39 39 42 44 44 45 47 42 40 41 43 49 60 62 62 62 62 61 60 60 58 57 57
31 32 34 34 34 32 32 30 31 31 32 30 30 32 33 34 35 36 36 35 37 38 40 42 43 43 44 42 40 39 40 42 46 58 60 60 60 60 59 59 56 58 58
31 32 34 35 35 31 31 29 31 31 30 29 31 31 31 33 34 35 35 35 35 37 38 39 41 41 42 41 40 38 40 42 45 48 57 59 59 59 57 56 54 55 54
30 33 35 35 33 31 30 31 30 30 30 29 30 31 31 31 33 34 34 34 35 36 37 38 38 39 40 40 38 37 39 40 43 45 49 54 58 57 57 57 59 58 57
33 34 35 33 31 31 30 30 30 30 30 29 30 32 32 31 32 33 34 34 34 34 34 36 37 37 38 38 37 37 37 38 39 39 41 44 46 52 46 57 58 58 58
30 30 29 30 30 30 31 30 30 30 30 29 30 32 32 31 32 33 33 33 32 32 33 33 34 35 36 35 36 37 35 35 36 37 39 41 41 39 38 39 51 58 59
29 28 28 29 29 31 31 30 30 29 29 28 31 32 33 31 31 31 31 31 31 31 32 32 32 33 34 35 34 35 34 33 34 36 37 39 38 36 36 37 39 48 57
28 28 28 28 30 31 31 29 26 25 27 29 30 30 31 31 30 30 30 30 30 30 30 31 31 32 32 32 33 33 33 33 33 33 35 37 36 36 37 38 39 41 44
28 28 28 29 30 30 29 24 23 25 27 29 29 29 29 28 28 28 29 29 29 29 29 29 30 31 31 32 31 31 31 32 32 33 34 35 36 37 38 38 38 39 46
28 29 28 28 28 26 25 24 25 26 27 28 29 28 28 28 26 27 28 28 28 28 28 29 29 30 31 31 32 31 31 31 32 32 33 35 35 36 37 37 37 38 39
29 29 27 27 25 23 24 25 25 26 26 28 27 27 27 27 26 26 27 27 29 30 29 29 30 30 30 31 32 32 30 30 30 31 33 33 34 33 34 34 35 36 37
29 27 25 25 23 24 24 25 26 26 26 26 25 25 26 25 25 26 26 28 27 28 29 29 30 31 31 31 31 32 31 31 30 31 31 31 31 31 32 32 33 34 34

GFSMW_sfc_30mbdewp_282.txt.gz
Dewpoint
28 30 34 36 37 39 41 42 44 45 47 48 50 54 56 60 67 67 67 66 66 64 63 61 56 56 53 54 56 57 57 55 53 51 49 50 58 59 59 60 60 58 59
27 29 31 34 36 37 39 39 42 43 45 46 48 52 54 57 61 67 67 67 66 66 65 63 59 57 55 55 56 58 55 54 53 50 45 44 48 55 59 59 60 60 59
28 29 30 32 34 35 36 37 39 40 43 45 46 48 53 57 60 63 65 66 66 66 66 64 63 60 58 54 57 58 57 52 52 53 44 42 41 42 52 58 59 60 61
27 30 31 31 32 35 36 35 36 38 40 43 44 47 48 50 54 56 58 60 66 66 66 65 64 63 61 59 56 57 56 55 48 51 53 48 44 46 44 55 58 60 61
25 27 31 31 32 34 36 35 33 35 39 41 44 44 45 47 50 53 56 57 58 66 66 65 65 64 64 61 60 57 58 54 53 48 50 50 48 53 51 44 55 58 58
23 27 28 30 31 32 34 36 33 31 36 38 41 43 43 45 46 49 51 54 57 59 65 65 65 65 64 63 63 62 59 58 55 52 48 48 47 47 48 49 48 49 56
20 23 27 29 31 31 31 34 33 30 32 35 37 41 42 43 43 46 48 50 52 55 58 60 65 64 64 64 64 63 62 61 58 58 54 51 49 47 46 46 46 46 50
19 20 28 30 30 30 31 35 33 29 30 33 34 38 41 41 41 43 46 48 49 52 53 57 59 64 64 64 64 63 63 63 62 60 60 56 54 51 50 47 45 47 48
21 23 30 33 30 30 30 35 33 29 30 32 33 33 38 41 41 42 45 46 47 48 50 53 57 59 62 64 63 63 63 62 63 62 62 60 59 57 54 53 50 50 48
27 29 32 35 31 30 30 34 33 30 31 33 33 33 35 39 41 42 42 43 45 46 48 50 53 55 57 61 64 63 63 63 62 62 62 62 61 59 58 57 56 55 53
28 29 32 34 31 31 30 32 33 32 31 31 32 33 35 37 40 41 42 41 42 45 46 48 49 51 52 55 57 61 63 63 62 62 61 61 61 61 59 59 57 56 57
27 29 33 31 31 31 30 31 31 30 31 30 31 32 34 35 37 38 40 42 41 42 44 46 47 49 50 53 54 54 58 62 62 62 62 61 61 61 61 60 58 58 58
27 28 30 31 32 31 30 30 30 30 31 29 28 30 33 35 35 37 38 39 40 41 41 44 45 46 49 48 46 46 47 50 56 62 62 62 60 61 61 60 60 59 58
24 26 28 31 32 32 30 31 30 31 30 29 27 29 32 34 35 36 37 37 38 40 40 42 43 45 46 44 43 42 43 45 48 52 59 62 62 62 62 62 61 60 59
20 23 25 28 30 31 30 30 30 31 31 29 28 29 31 32 33 35 36 36 36 37 40 40 42 43 45 41 40 40 41 44 45 47 50 55 62 61 62 61 60 60 60
22 22 25 27 29 30 29 29 30 31 31 29 28 29 30 30 31 33 35 35 35 36 37 39 40 41 43 39 38 37 40 43 44 46 48 50 53 57 57 58 60 60 57
24 23 25 26 29 31 30 30 30 30 30 30 29 28 29 30 30 31 33 34 34 35 36 36 38 39 40 38 36 36 40 41 42 43 44 45 46 48 47 53 55 56 57
24 25 26 27 28 29 29 30 30 29 30 29 29 27 29 30 30 30 31 33 33 34 34 35 35 36 38 37 35 34 39 40 39 40 40 42 43 45 40 40 44 54 58
26 29 29 29 28 29 30 30 29 28 29 29 28 26 29 30 30 29 31 32 32 32 32 32 33 34 34 36 34 34 35 37 38 36 38 39 42 40 37 37 40 44 47
27 28 29 28 29 29 30 30 28 28 28 27 25 26 29 30 30 30 30 31 31 30 31 31 32 33 33 34 33 33 33 33 33 35 37 37 39 37 36 36 38 39 43
25 27 28 28 28 29 30 30 27 25 22 23 25 27 29 29 29 29 29 29 29 30 30 31 31 32 32 32 32 31 31 31 31 32 34 36 35 35 35 36 38 39 39
22 25 28 28 28 29 30 28 23 19 20 23 25 26 27 27 26 27 28 28 28 29 30 30 30 31 32 32 32 32 32 30 30 31 34 34 33 33 35 37 38 36 36
20 24 28 28 28 30 29 24 19 20 21 23 24 25 26 25 26 26 26 27 28 28 28 28 28 29 30 32 32 32 32 32 30 31 31 31 33 35 37 38 36 37 39
18 24 28 28 28 29 24 20 20 22 22 22 23 25 24 25 25 25 26 26 26 27 27 27 28 29 30 31 32 32 33 32 32 31 32 33 33 34 35 36 36 37 36
19 24 28 29 28 25 20 19 21 23 22 23 23 24 24 25 24 24 25 25 26 27 26 27 28 28 29 30 31 31 31 32 32 31 33 32 32 32 32 33 34 34 34
22 29 29 28 26 21 20 21 23 24 24 23 22 24 25 25 24 23 24 27 27 28 28 28 28 29 29 30 30 30 31 31 31 31 31 31 31 31 31 31 32 32 33

GFSMW_sfc_30mbdewp_288.txt.gz
Dewpoint
24 26 29 31 34 38 39 38 37 40 43 43 44 46 47 50 54 57 57 60 59 60 64 66 64 63 60 56 58 60 58 58 56 55 55 54 57 58 59 59 61 60 60
23 25 28 30 32 34 38 38 36 37 40 41 43 45 46 48 51 53 55 56 58 58 60 61 62 63 63 59 58 59 59 58 59 55 54 51 51 56 56 58 58 61 60
21 24 26 30 31 34 36 36 36 36 38 41 40 43 45 45 45 47 51 53 54 57 58 58 61 62 64 63 61 59 59 58 58 59 54 51 48 49 53 58 58 58 61
19 20 22 25 29 33 35 36 37 34 35 40 39 40 42 42 44 45 48 50 52 53 57 57 58 59 63 62 64 63 59 59 57 58 57 55 55 51 49 54 58 59 60
17 16 19 20 25 34 35 37 36 34 36 38 39 39 39 41 43 44 45 48 50 51 52 54 55 55 58 60 63 64 64 60 59 57 56 56 54 54 53 50 55 59 59
18 21 21 21 22 32 34 36 36 33 35 37 38 38 38 39 39 42 43 44 46 48 51 51 52 55 55 57 59 63 62 63 60 58 57 55 55 54 54 52 49 51 57
23 23 23 24 30 31 33 34 36 34 35 37 38 38 38 38 38 40 42 43 44 45 45 49 50 53 54 56 56 58 62 62 60 60 61 58 55 54 53 52 50 48 49
25 25 25 27 28 30 31 34 35 34 34 36 37 37 38 37 38 39 41 42 43 44 46 47 49 50 52 54 55 55 56 60 59 57 58 58 60 58 54 52 49 49 50
24 24 26 31 30 30 31 33 35 33 33 35 36 36 37 38 39 40 41 41 43 42 44 45 45 48 49 51 54 53 52 53 55 60 60 58 60 63 61 59 57 49 45
23 23 24 28 29 30 31 33 34 33 34 35 36 35 36 38 39 40 40 41 42 42 42 44 45 45 47 50 50 49 49 49 51 53 55 59 59 61 61 61 61 60 57
22 23 24 27 28 29 31 31 32 32 33 34 34 36 37 37 38 39 39 40 42 41 41 42 43 43 45 47 46 46 46 46 47 49 51 52 57 61 62 61 61 61 61
22 22 23 25 26 27 28 29 31 31 32 33 33 35 36 37 37 37 38 40 40 40 40 41 42 43 44 46 44 43 42 43 44 46 48 49 52 54 56 60 61 61 61
22 22 21 22 24 26 27 28 30 30 32 32 32 34 35 35 36 36 37 38 39 39 39 40 41 41 43 43 42 41 40 40 42 46 47 48 50 51 51 52 54 54 55
18 21 21 22 24 26 27 27 28 30 31 32 32 32 34 34 34 35 36 36 37 38 38 38 39 40 42 41 40 39 38 39 40 45 46 46 47 47 48 48 49 49 51
16 18 19 22 23 24 25 27 28 30 31 31 31 32 33 33 32 33 35 35 37 37 37 36 38 39 39 38 36 36 36 36 38 42 43 43 43 46 44 42 41 42 44
18 18 18 19 21 23 25 25 28 29 31 31 31 30 31 30 29 32 33 33 35 36 36 36 37 36 36 36 34 33 34 35 37 39 41 42 41 42 43 40 36 39 41
19 19 20 21 23 25 25 25 26 29 29 29 29 28 29 26 27 29 31 32 34 36 35 35 35 35 37 35 33 32 34 34 35 36 37 37 37 42 38 37 36 38 41
20 20 22 23 24 25 26 27 26 26 27 27 26 27 26 23 26 29 30 32 33 34 34 34 33 34 34 34 32 32 33 33 33 35 33 34 36 34 34 34 34 34 37
24 25 25 25 26 27 27 26 26 27 27 26 26 26 24 24 26 28 30 31 31 32 32 31 32 32 33 34 32 32 32 32 32 32 32 33 34 33 32 31 31 32 34
21 21 22 22 24 26 28 28 27 28 28 27 25 23 24 25 27 28 29 30 31 29 29 30 31 31 31 33 33 32 30 29 30 30 31 32 32 32 31 31 30 31 33
18 18 18 18 19 21 26 28 28 29 28 27 22 22 24 25 27 27 28 28 28 29 30 29 30 30 30 31 31 31 29 29 30 30 29 30 30 30 30 31 30 31 33
18 18 17 17 18 19 19 24 27 30 28 22 20 21 23 24 22 26 27 28 28 29 29 30 29 30 30 30 30 30 29 30 33 30 28 29 29 30 31 30 31 32 32
19 19 18 18 18 19 18 25 33 35 34 22 20 21 23 23 24 25 26 27 28 28 29 29 29 30 30 31 31 31 32 29 29 28 30 30 28 29 30 31 31 32 33
20 20 20 19 19 20 19 21 33 34 28 20 21 23 23 24 24 25 27 27 28 29 29 29 30 30 30 30 30 30 29 28 28 29 27 28 29 29 29 30 30 32 33
21 21 22 22 23 21 21 29 35 37 25 21 23 24 24 25 26 26 27 28 28 29 29 29 29 29 28 29 29 28 26 27 27 28 28 28 28 27 29 29 29 30 31
34 35 35 32 25 28 31 35 37 26 22 22 23 24 25 26 26 26 26 30 31 30 29 29 28 29 30 30 30 30 30 27 28 27 27 28 29 30 30 30 29 29 30